Location: *
(49.8044°N, 4.0558°E)
Time: 18:08:26
(UTC+00:00)

Cosmos 1954 Rocket - Pass Details

Date: 09 April 2020
Orbit: 752 x 781 km, 74.1° (Epoch: 03 June)

Event Time Altitude Azimuth Distance (km) Brightness Sun altitude
Rises 19:28:24 0° 181° (S) 3,226 7.0 -9.9°
Reaches altitude 10° 19:30:52 10° 175° (S) 2,299 6.2 -10.3°
Maximum altitude 19:35:46 43° 105° (ESE) 1,061 4.3 -11.0°
Drops below altitude 10° 19:40:41 10° 35° (NE) 2,298 6.4 -11.7°
Sets 19:43:08 0° 29° (NNE) 3,225 7.2 -12.0°
